Simultaneous Nadir Overpasses (SNOs) Predictions

Prediction of SNOs between METOP-B and TERRA Satellite Orbit:

Table of predicted SNOs for the next 14.0 days since TLE Epoch: 2/24/2018
Index Date (METOP-B) Time (METOP-B) Lat,Lon (METOP-B) SZA (METOP-B ) Date (TERRA) Time (TERRA) Lat,Lon (TERRA) SZA (TERRA ) Distance(km) Time Diff (sec)
1 02/26/2018 08:49:33 81.32, 94.95 92.38 02/26/2018 08:50:41 81.32, 94.94 92.40 0.49 68
2 02/26/2018 09:40:12 -81.33, -97.09 87.57 02/26/2018 09:40:07 -81.33, -97.11 87.57 0.64 5
3 03/01/2018 04:23:55 81.32, 161.28 91.32 03/01/2018 04:24:59 81.32, 161.33 91.35 1.04 64
4 03/01/2018 05:14:34 -81.33, -30.75 88.62 03/01/2018 05:14:25 -81.33, -30.69 88.62 1.27 9
5 03/03/2018 23:58:16 81.33,-132.01 90.30 03/03/2018 23:59:18 81.32,-132.20 90.31 3.12 62
6 03/04/2018 00:48:56 -81.33, 35.57 89.69 03/04/2018 00:48:45 -81.32, 35.44 89.71 2.31 11
7 03/06/2018 19:32:37 81.32, -65.71 89.23 03/06/2018 19:33:37 81.33, -65.63 89.26 1.42 60
8 03/06/2018 20:23:17 -81.33, 101.88 90.76 03/06/2018 20:23:04 -81.33, 102.04 90.75 2.76 13
9 03/09/2018 15:06:59 81.32, 0.59 88.14 03/09/2018 15:07:59 81.32, 0.65 88.17 1.12 60




NCC Satellite Simultaneous Nadir Overpasses (SNOs) Prediction Service
